Lapse_Rate
7.1 6.3 6.0 6.0 5.9 5.5 5.4 5.5 5.6 5.6 5.6 5.6 5.6 5.5 5.3 5.3 5.3 5.1 5.0 5.2 5.2 5.0 4.9 4.8 4.9 5.0 5.4 5.2 5.0 5.5 5.3 5.3 5.0 4.8 5.2 5.2 5.1 5.2 5.2 5.5 5.6 5.6 5.7
7.0 6.5 6.2 5.7 5.8 6.0 5.7 5.4 5.4 5.5 5.5 5.4 5.2 5.2 5.2 5.1 5.0 5.0 5.1 5.1 4.9 4.9 4.9 4.8 4.8 5.2 5.4 5.2 5.2 5.2 5.3 5.8 5.0 4.7 5.2 4.9 5.4 5.3 5.3 5.3 5.5 5.4 5.6
6.7 6.7 6.4 6.3 5.9 5.8 5.7 5.7 5.6 5.6 5.5 5.2 5.1 5.1 4.9 5.0 4.9 5.0 5.1 5.0 4.9 4.8 4.7 4.8 5.0 4.8 5.1 5.0 5.2 5.2 5.2 5.4 4.8 4.8 5.2 5.0 5.0 5.2 5.2 5.3 5.5 5.6 5.7
6.6 6.6 6.5 6.3 6.3 6.1 5.9 5.9 5.9 5.7 5.5 5.4 5.1 5.1 5.0 4.9 4.9 4.9 4.7 4.8 4.9 4.7 4.7 4.8 4.8 4.8 4.8 4.9 5.1 4.9 5.0 5.0 4.8 4.8 5.1 5.0 5.1 5.0 5.0 5.0 5.1 5.4 5.8
6.8 6.7 6.6 6.5 6.4 6.4 6.3 6.0 5.8 5.7 5.7 5.5 5.4 5.3 5.2 5.2 5.1 5.0 5.0 4.8 4.8 4.8 4.9 4.8 4.9 5.0 5.1 5.0 4.9 4.7 4.5 4.8 5.1 5.1 5.1 5.0 5.1 5.2 5.4 5.5 5.5 5.5 5.7
6.7 6.6 6.5 6.6 6.8 6.5 6.4 6.3 6.1 6.1 5.9 5.7 5.6 5.4 5.4 5.3 5.1 5.1 4.9 4.8 4.9 4.9 4.9 4.9 4.9 5.0 5.1 4.8 5.0 4.7 4.9 4.8 4.9 5.0 5.2 5.1 5.0 5.1 5.3 5.4 5.4 5.6 5.5
6.4 6.4 6.7 6.5 6.5 6.4 6.4 6.3 6.1 5.7 5.6 5.7 5.7 5.6 5.5 5.4 5.3 5.3 5.3 5.2 5.0 4.8 4.8 4.8 4.8 4.7 4.7 5.0 4.9 4.7 5.0 4.9 4.9 5.1 5.2 5.1 5.1 5.2 5.3 5.2 5.5 5.5 5.4
6.4 6.1 6.1 6.1 6.1 6.0 5.8 5.7 5.8 5.7 5.7 5.9 5.7 5.5 5.6 5.4 5.3 5.1 5.0 5.0 5.2 5.2 5.1 5.1 5.1 4.9 4.8 4.8 4.9 4.8 4.8 4.8 5.0 5.1 5.1 5.3 5.4 5.5 5.6 5.5 5.5 5.8 5.6
6.2 6.3 5.9 5.7 5.5 5.4 5.4 5.5 5.5 5.7 5.8 5.9 5.9 5.8 5.7 5.7 5.7 5.6 5.4 5.5 5.2 5.3 5.3 5.2 5.1 5.2 5.2 5.2 4.9 4.9 5.0 5.0 5.2 5.2 5.1 5.1 5.2 5.2 5.3 5.3 5.4 5.5 5.5
5.8 5.7 5.7 5.6 5.3 5.3 5.2 5.3 5.5 5.4 5.3 5.4 5.7 5.7 5.6 5.5 5.5 5.5 5.4 5.4 5.3 5.3 5.3 5.3 5.3 5.2 5.1 5.1 5.0 5.1 5.2 5.0 4.9 5.0 5.0 5.0 4.9 5.0 5.2 5.3 5.3 5.3 5.2
6.1 6.0 5.5 5.4 5.0 5.1 5.0 5.2 5.1 5.0 5.3 5.2 5.2 5.3 5.3 5.2 5.2 5.2 5.2 5.3 5.3 5.3 5.4 5.1 4.9 5.2 5.1 5.1 4.9 4.7 4.8 4.5 4.6 4.7 4.8 4.8 4.9 5.1 5.4 5.8 5.3 5.2 5.2
5.4 5.5 5.3 5.3 5.3 4.9 4.9 4.9 5.1 5.3 5.6 5.2 5.2 5.1 5.0 5.2 4.9 5.2 5.3 5.3 4.9 4.7 5.0 5.0 4.9 5.0 5.0 5.2 4.9 4.8 4.7 4.5 4.6 4.5 4.7 4.7 5.3 5.3 5.3 5.4 5.8 5.5 5.4
5.2 5.4 5.2 5.4 5.4 5.2 4.9 4.9 4.8 5.2 5.0 5.2 5.1 4.9 5.1 4.8 4.9 5.1 5.3 5.0 4.9 4.9 4.8 4.9 4.7 4.5 4.4 4.4 4.4 4.3 4.2 4.5 5.0 4.8 4.9 5.2 5.7 5.6 5.5 5.2 5.1 5.4 5.3
5.0 5.2 5.1 5.3 5.2 5.2 5.1 5.0 5.1 5.4 5.3 5.2 5.1 5.2 5.0 4.9 5.0 4.6 4.6 4.3 4.6 4.8 4.8 4.7 4.7 4.8 4.7 4.6 4.4 4.7 4.9 5.1 5.0 4.9 5.0 5.3 5.4 5.6 5.2 4.9 4.6 4.5 4.4
5.0 5.2 5.3 5.2 5.0 5.0 5.1 5.3 5.3 5.2 5.0 5.1 5.1 4.8 4.8 4.7 4.8 4.7 4.5 4.6 4.6 4.8 5.0 5.0 5.2 5.3 5.1 5.0 5.1 5.1 5.1 5.2 5.1 5.0 4.9 4.9 4.8 4.6 4.4 4.3 4.1 4.1 4.0
5.0 5.2 5.2 5.2 5.2 5.0 5.0 5.0 4.9 4.8 4.7 4.7 4.7 4.8 4.7 4.7 5.0 4.9 5.3 5.2 5.0 4.9 4.7 4.8 4.8 4.8 4.6 4.6 4.5 4.5 4.7 4.6 4.4 4.3 4.3 4.2 4.1 3.9 3.8 3.7 3.9 4.0 4.0
5.0 5.1 4.9 5.0 5.1 5.1 5.2 5.1 5.2 5.2 5.2 5.2 5.2 5.3 5.3 5.3 5.1 5.1 5.0 4.9 4.7 4.7 4.7 4.6 4.4 4.3 4.3 4.2 4.1 4.0 3.9 3.9 3.8 3.8 3.6 3.6 3.6 3.6 3.8 4.0 4.2 4.3 4.4
4.9 4.9 5.1 5.3 5.3 5.4 5.6 5.6 5.6 5.6 5.5 5.5 5.4 5.3 5.2 5.1 5.0 4.9 4.8 4.6 4.5 4.5 4.3 4.2 4.0 4.0 3.9 4.0 4.0 4.1 4.0 3.7 3.8 3.9 3.9 4.0 4.0 4.1 4.3 4.3 4.4 4.7 4.9
5.3 5.3 5.3 5.3 5.5 5.6 5.5 5.3 5.2 5.3 5.4 5.3 5.2 5.0 5.1 4.9 4.7 4.6 4.4 4.2 3.8 3.6 3.6 3.5 3.8 3.7 3.7 3.7 3.8 4.0 4.2 4.4 4.3 4.3 4.4 4.6 4.6 4.6 4.6 4.7 4.9 5.2 5.1
5.0 5.1 5.2 5.4 5.4 4.9 4.4 3.7 4.3 4.4 4.2 4.0 3.4 4.2 4.5 4.2 4.3 4.1 4.0 3.9 3.8 4.0 4.0 4.1 4.2 4.6 4.7 4.9 4.8 4.7 4.5 4.5 4.6 4.6 4.7 4.6 4.7 4.7 4.8 5.0 4.9 5.0 5.2
4.9 5.0 4.8 3.8 3.8 4.2 4.3 3.9 3.5 3.5 3.0 3.0 3.9 3.8 3.8 3.7 3.6 3.7 3.6 3.7 3.8 3.9 4.2 4.5 4.5 4.7 4.8 5.0 5.2 5.1 5.0 5.1 5.3 5.4 5.4 5.3 5.2 5.0 5.1 5.1 5.2 5.1 5.2
3.9 3.8 3.6 3.7 3.6 3.6 3.5 3.4 4.1 3.7 3.3 3.8 3.9 3.9 3.8 3.7 3.7 3.8 4.0 4.1 4.4 4.8 4.9 4.9 4.9 5.1 5.4 5.7 5.6 5.8 5.6 6.0 6.4 6.3 6.2 6.0 5.8 5.6 5.5 5.3 5.4 5.4 5.5
4.0 3.9 3.8 3.5 3.6 3.3 3.3 3.1 3.0 3.5 3.4 4.2 4.2 4.1 4.0 4.0 4.2 4.5 4.7 5.0 5.1 5.1 5.2 5.3 5.4 5.4 5.3 5.5 5.6 5.9 6.1 6.2 6.3 6.4 6.3 6.2 6.0 5.7 5.5 5.5 5.5 5.6 5.6
4.1 3.8 3.7 3.7 3.5 3.3 3.2 3.4 3.2 3.7 3.6 3.9 4.1 4.2 4.3 4.6 4.8 5.1 5.1 5.2 5.2 5.2 5.4 5.4 5.4 5.4 5.4 5.4 5.5 5.7 6.0 6.1 6.1 6.2 6.1 6.0 5.9 5.7 5.6 5.5 5.5 5.6 5.6
4.1 3.9 3.8 3.8 3.6 3.5 3.6 3.3 3.3 3.6 4.2 4.2 4.2 4.6 4.9 5.2 5.3 5.3 5.4 5.4 5.2 4.7 4.5 5.1 5.3 5.2 5.5 5.6 5.5 5.7 5.6 5.8 5.9 6.0 5.9 5.8 5.8 5.6 5.5 5.5 5.6 5.9 6.1
3.9 4.1 3.7 3.8 3.7 3.6 3.5 3.4 3.7 4.3 4.4 4.8 5.1 5.3 5.4 5.3 5.4 5.5 5.5 5.5 5.1 4.4 5.2 5.1 5.6 5.6 5.5 5.6 5.4 5.5 5.6 5.7 5.8 5.8 5.8 5.9 5.9 5.9 5.9 6.0 6.0 6.0 6.2
Wind_Speed
5 2 3 7 4 4 6 7 6 6 6 7 7 7 8 9 7 8 8 8 5 4 4 7 9 6 5 5 3 3 4 4 6 4 5 4 7 4 9 11 11 12 14
3 1 2 6 5 2 5 5 4 8 6 8 7 7 8 9 7 5 5 4 4 3 5 6 6 5 6 5 4 4 3 2 5 5 4 5 7 6 6 8 9 10 11
3 2 1 5 4 4 4 5 5 5 7 8 7 7 8 8 7 7 8 8 8 8 7 7 8 8 5 4 1 3 3 1 3 3 3 3 6 6 6 6 5 7 8
2 4 3 4 4 4 5 4 5 7 8 7 7 8 9 10 10 9 8 8 7 6 7 6 7 7 5 3 4 4 2 3 3 3 7 7 6 5 5 6 6 6 4
7 10 6 3 4 6 6 7 7 7 5 7 9 10 9 8 6 7 6 6 5 6 5 5 4 7 11 9 2 4 4 4 2 3 4 5 6 7 4 1 1 2 3
5 5 7 5 5 7 7 8 8 8 6 7 10 10 9 5 4 8 9 6 6 6 5 5 6 9 10 12 13 12 11 4 2 5 3 6 5 4 2 1 1 3 4
7 8 9 6 6 8 7 7 6 8 7 7 7 8 10 8 8 4 8 7 7 6 6 6 6 6 8 6 5 11 15 17 12 9 8 8 6 5 4 1 4 2 2
8 10 9 9 8 7 6 7 7 7 10 11 11 11 10 9 11 6 8 9 8 8 7 7 9 7 9 6 7 10 12 14 13 10 11 10 9 9 6 3 2 3 5
7 9 9 8 6 7 8 8 8 9 10 10 10 11 11 11 14 11 6 9 10 10 10 12 8 8 12 14 8 9 10 11 18 20 18 15 15 14 14 6 4 4 5
1 8 12 13 11 12 10 10 9 9 11 10 12 12 13 12 19 17 4 8 9 9 10 10 19 12 15 16 7 6 8 7 6 6 5 7 4 7 10 8 5 5 6
13 15 14 14 14 12 10 9 9 10 11 12 14 12 14 14 16 21 20 8 7 8 8 8 8 14 15 16 13 8 7 5 3 3 2 2 2 2 3 6 4 5 6
13 15 15 13 11 9 12 10 11 12 11 10 11 9 9 12 16 17 17 15 12 10 8 7 6 10 13 12 8 9 7 6 2 3 4 0 3 5 6 6 4 5 7
14 15 14 13 11 11 12 11 9 8 7 6 7 7 6 6 7 15 14 13 14 8 5 6 6 3 4 7 3 2 7 6 6 6 5 4 5 4 5 6 4 7 11
16 15 13 12 13 11 8 8 7 8 7 7 7 7 5 5 5 4 4 4 8 5 7 4 4 5 7 5 3 4 4 5 5 6 6 5 4 4 4 4 5 5 5
15 14 12 11 13 12 12 8 8 7 5 6 5 5 5 5 3 1 4 3 3 3 1 4 4 3 3 3 3 2 4 4 4 4 4 4 4 4 3 5 4 4 4
16 12 11 11 10 10 10 11 17 13 12 12 10 9 8 6 5 7 7 5 6 7 2 4 3 3 4 4 4 3 3 3 4 4 4 4 5 5 5 6 4 4 5
15 14 10 9 7 9 10 11 11 11 15 13 12 13 14 7 5 3 2 4 5 7 4 5 4 4 4 3 2 2 3 2 3 3 3 4 4 5 4 5 4 5 5
15 13 11 9 8 8 9 9 9 9 8 7 6 7 5 3 1 3 5 7 5 3 4 4 3 3 2 2 3 3 4 5 4 4 4 4 5 5 5 5 5 4 5
12 9 8 7 7 6 6 7 7 7 7 7 7 7 6 6 8 10 8 6 5 4 4 4 4 4 4 5 5 4 3 4 3 5 5 5 5 5 5 5 5 2 2
8 10 8 6 6 6 4 5 5 4 2 3 3 4 8 8 7 5 3 4 4 4 4 4 3 3 3 3 3 4 4 3 3 5 5 5 5 5 5 6 6 5 5
8 6 5 1 4 5 3 2 2 4 2 5 6 6 8 7 4 4 5 5 5 5 5 5 5 4 3 2 4 4 3 4 4 5 5 6 6 6 6 6 6 5 5
7 4 3 5 4 3 4 2 4 3 2 1 5 5 5 5 3 3 4 4 5 4 5 4 5 4 4 4 4 4 5 3 5 6 6 6 6 6 6 6 6 5 6
3 1 4 6 6 6 3 6 4 4 4 4 3 3 3 3 3 2 3 3 3 4 5 4 4 4 5 2 4 4 5 4 6 9 7 7 7 5 6 6 6 6 6
3 3 5 6 7 6 9 4 6 2 4 1 4 1 1 1 2 4 3 3 3 3 3 5 6 5 5 6 6 5 11 8 4 9 11 8 7 5 7 6 6 6 6
0 3 4 4 4 5 5 4 3 4 4 3 3 2 2 1 1 2 1 1 3 4 5 5 7 9 7 8 8 7 10 8 7 5 9 10 8 7 7 6 6 7 6
2 3 5 2 3 3 2 4 4 4 3 3 3 2 3 3 3 2 2 2 4 2 4 10 6 6 5 11 10 8 6 5 4 4 6 9 7 6 6 7 8 7 7
Wind_Direction
324 313 70 105 83 8 69 58 80 94 103 100 112 129 137 133 134 163 163 158 150 165 214 200 214 256 293 294 246 249 274 251 266 160 149 94 81 69 120 114 99 102 92
282 280 120 129 139 15 102 115 63 94 97 107 102 110 123 133 121 83 62 105 99 62 3 348 307 234 209 255 286 278 255 163 300 133 144 124 90 95 109 120 156 111 114
221 216 178 178 165 163 150 127 117 109 122 109 105 98 113 124 117 88 88 76 59 49 39 28 356 337 347 344 333 358 130 270 274 69 93 87 133 140 120 112 110 116 115
188 252 175 174 157 166 155 170 126 145 133 125 114 108 106 106 104 94 90 81 74 59 51 47 33 11 355 8 24 16 338 300 223 148 147 155 150 163 156 153 154 185 147
175 234 156 136 163 131 119 118 105 120 122 133 136 131 121 115 116 112 105 104 98 85 74 74 74 75 55 37 24 3 302 238 201 158 171 159 160 173 151 65 107 120 112
228 210 149 162 134 126 125 124 127 122 123 140 140 143 142 116 66 154 149 144 141 137 134 133 122 87 68 57 66 61 49 335 135 189 135 116 96 119 97 105 224 228 181
202 208 159 191 165 161 160 168 139 125 122 93 89 94 69 67 23 135 193 139 118 132 151 172 151 126 133 123 137 84 53 31 40 43 75 81 83 36 30 259 32 330 315
207 205 175 186 180 188 168 99 86 80 64 73 70 69 72 53 21 59 96 117 115 106 72 81 72 56 21 12 89 76 65 48 35 62 64 58 50 29 18 40 354 281 248
218 193 182 124 107 91 78 89 87 89 80 78 79 74 69 50 18 18 142 109 95 80 63 43 53 43 12 358 74 85 86 89 76 86 93 88 68 46 20 334 26 324 309
126 73 91 96 87 72 55 50 63 78 82 84 79 74 63 53 22 21 77 123 111 99 80 67 43 45 40 30 47 100 89 58 67 118 128 115 83 74 59 33 1 327 319
78 82 78 77 80 74 65 45 61 77 87 85 77 65 62 47 40 28 19 77 94 91 86 70 51 43 48 43 51 49 55 79 4 31 29 46 29 333 63 35 355 328 321
88 90 86 85 86 83 83 77 74 75 71 77 81 67 58 55 47 45 46 56 69 90 84 73 60 56 58 52 46 28 358 318 216 212 233 350 20 350 6 358 348 316 320
85 84 87 87 88 93 91 86 88 77 79 70 76 76 56 46 58 57 55 62 69 78 84 96 104 93 109 84 57 346 286 316 348 323 355 353 11 9 308 249 281 212 234
89 90 90 92 91 85 81 80 84 84 83 84 86 81 77 57 44 37 72 81 98 108 150 164 81 64 65 82 16 9 35 20 335 349 350 355 334 328 317 358 322 338 323
95 91 86 85 84 82 75 76 78 63 87 102 94 95 92 73 58 5 46 93 69 60 28 121 105 95 83 67 79 45 54 344 357 3 351 353 335 341 359 337 329 319 318
104 103 107 110 110 108 101 88 59 65 70 76 74 87 87 85 75 60 60 44 1 333 148 93 85 74 49 40 24 37 70 18 4 340 348 357 347 333 8 302 328 334 322
109 114 109 108 115 114 120 112 106 76 66 64 71 63 64 84 88 69 4 324 258 284 80 56 55 45 50 56 28 17 5 61 260 303 336 339 331 329 310 332 338 325 334
111 121 128 136 152 143 127 136 136 130 117 112 68 86 93 129 179 257 280 291 217 158 82 50 52 24 38 14 7 6 4 327 10 357 326 340 334 334 325 334 324 7 339
151 151 152 141 97 95 109 110 109 105 112 133 139 177 179 234 256 261 241 256 27 47 37 69 45 13 4 8 11 359 323 29 339 316 341 346 343 327 325 327 321 212 279
81 28 89 111 162 138 132 105 90 114 97 84 101 91 155 172 207 192 99 30 9 9 15 2 49 54 5 17 329 340 327 328 2 348 353 338 338 328 328 327 318 327 318
124 141 315 179 82 77 41 39 47 6 1 49 77 53 355 320 43 56 16 25 13 358 357 1 330 24 323 45 24 318 329 346 12 358 343 336 336 326 327 323 314 315 315
148 182 182 124 152 183 173 59 94 245 333 21 113 118 274 268 33 25 20 9 13 4 11 352 327 357 1 26 337 354 322 3 19 358 340 335 329 326 336 326 313 321 318
200 13 140 132 125 152 133 176 195 245 166 168 161 138 181 38 9 16 1 16 4 5 16 350 323 327 338 359 308 292 300 358 24 350 338 332 319 339 321 305 322 316 333
150 255 267 175 163 176 191 194 185 35 5 169 154 155 296 11 338 88 303 11 355 332 288 333 338 335 336 307 308 306 354 46 7 347 344 304 310 333 327 310 315 327 310
85 250 250 177 152 219 157 238 126 167 183 203 202 194 208 242 292 278 345 313 278 282 30 355 25 0 338 334 304 47 89 71 37 11 318 315 307 305 295 318 340 315 315
231 223 268 291 203 192 194 172 189 192 231 195 212 221 251 234 214 259 230 224 303 2 42 16 53 12 337 63 65 89 98 70 31 359 324 298 295 321 342 326 319 310 318